You are not logged in, Click here to log in
雅典國際機場ATH / LGAV 希臘-斯帕塔
ICAO: LGAV Country: 希臘-斯帕塔
Latitude: 37.9364 Longitude: 23.9445
Total Arrivals: 10 Total Departures: 14
Latest Arrival: LH1750 (EDDM-LGAV)ALAN. LIU Latest Departure: AZ719 (LGAV-LIRF)Stone. Chang
Scenery:
METAR : LGAV 190450Z 00000KT CAVOK 04/01 Q1019 NOSIG

雅典國際機場ATH

You are accessing this site from IP address 35.175.113.29. Virtual Airline. CMS by phpVMS.Website designed by Zumeweb and edited by Theo Bearman.
There is 0 User(s) Online: | and 1 Guest(s) Online.
All information on this site is for fight simulation purposes only. This site is for flight logging for pilots of Virtual Airline&模擬飛行論壇 FlySim only.